Time,TemperatureF,DewpointF,PressureIn,WindDirection,WindDirectionDegrees,WindSpeedMPH,WindSpeedGustMPH,Humidity,HourlyPrecipIn,Conditions,Clouds,dailyrainin,SolarRadiationWatts/m^2,SoftwareType,DateUTC
2014-01-22 00:04:00,58.1,25.1,30.16,WNW,284,0.9,2.3,28,0.00,CLR,,0.00,0.0,WeatherDisplay:10.37,2014-01-22 08:04:00,
2014-01-22 00:08:00,58.2,24.3,30.16,WNW,283,1.4,2.3,27,0.00,CLR,,0.00,0.0,WeatherDisplay:10.37,2014-01-22 08:08:00,
2014-01-22 00:14:00,58.2,24.3,30.15,WNW,282,0.8,1.2,27,0.00,CLR,,0.00,0.0,WeatherDisplay:10.37,2014-01-22 08:14:00,
2014-01-22 00:19:00,58.2,24.3,30.15,WNW,283,0.4,1.2,27,0.00,CLR,,0.00,0.0,WeatherDisplay:10.37,2014-01-22 08:19:00,
2014-01-22 00:23:00,58.6,23.8,30.15,WNW,283,1.0,2.3,26,0.00,CLR,,0.00,0.0,WeatherDisplay:10.37,2014-01-22 08:23:00,
2014-01-22 00:28:00,58.9,24.0,30.15,South,190,2.0,3.5,26,0.00,CLR,,0.00,0.0,WeatherDisplay:10.37,2014-01-22 08:28:00,
2014-01-22 00:33:00,59.1,23.3,30.15,South,191,1.8,3.5,25,0.00,CLR,,0.00,0.0,WeatherDisplay:10.37,2014-01-22 08:33:00,
2014-01-22 00:38:00,59.5,21.6,30.14,South,191,1.8,3.0,23,0.00,CLR,,0.00,0.0,WeatherDisplay:10.37,2014-01-22 08:38:00,
2014-01-22 00:43:00,60.6,20.4,30.14,SSE,166,2.2,3.0,21,0.00,CLR,,0.00,0.0,WeatherDisplay:10.37,2014-01-22 08:43:00,
2014-01-22 00:48:00,61.6,20.1,30.14,South,170,0.3,2.3,20,0.00,CLR,,0.00,0.0,WeatherDisplay:10.37,2014-01-22 08:48:00,
2014-01-22 00:53:00,62.1,19.3,30.14,SSE,156,3.5,4.0,19,0.00,CLR,,0.00,0.0,WeatherDisplay:10.37,2014-01-22 08:53:00,
2014-01-22 00:58:00,62.2,18.1,30.14,SE,146,4.4,5.0,18,0.00,CLR,,0.00,0.0,WeatherDisplay:10.37,2014-01-22 08:58:00,
2014-01-22 01:03:00,62.5,17.0,30.14,ESE,116,3.2,4.0,17,0.00,CLR,,0.00,0.0,WeatherDisplay:10.37,2014-01-22 09:03:00,
2014-01-22 01:08:00,63.1,17.5,30.14,ESE,118,3.3,3.5,17,0.00,CLR,,0.00,0.0,WeatherDisplay:10.37,2014-01-22 09:08:00,
2014-01-22 01:13:00,63.4,17.8,30.14,ESE,120,2.7,4.6,17,0.00,CLR,,0.00,0.0,WeatherDisplay:10.37,2014-01-22 09:13:00,
2014-01-22 01:18:00,63.6,16.5,30.14,ESE,118,2.0,3.5,16,0.00,CLR,,0.00,0.0,WeatherDisplay:10.37,2014-01-22 09:18:00,
2014-01-22 01:23:00,63.5,17.8,30.14,ENE,70,1.5,3.5,17,0.00,CLR,,0.00,0.0,WeatherDisplay:10.37,2014-01-22 09:23:00,
2014-01-22 01:28:00,63.5,16.4,30.13,ENE,72,0.5,1.2,16,0.00,CLR,,0.00,0.0,WeatherDisplay:10.37,2014-01-22 09:28:00,
2014-01-22 01:33:00,63.4,16.4,30.13,ENE,72,0.5,1.2,16,0.00,CLR,,0.00,0.0,WeatherDisplay:10.37,2014-01-22 09:33:00,
2014-01-22 01:38:00,63.2,17.6,30.13,ENE,70,1.1,1.2,17,0.00,CLR,,0.00,0.0,WeatherDisplay:10.37,2014-01-22 09:38:00,
2014-01-22 01:43:00,63.2,16.2,30.13,ENE,70,1.3,2.3,16,0.00,CLR,,0.00,0.0,WeatherDisplay:10.37,2014-01-22 09:43:00,
2014-01-22 01:48:00,63.2,16.2,30.13,ENE,71,1.5,2.3,16,0.00,CLR,,0.00,0.0,WeatherDisplay:10.37,2014-01-22 09:48:00,
2014-01-22 01:53:00,63.2,16.2,30.13,ENE,72,1.1,2.3,16,0.00,CLR,,0.00,0.0,WeatherDisplay:10.37,2014-01-22 09:53:00,
2014-01-22 01:58:00,63.4,17.8,30.13,ENE,70,0.5,1.2,17,0.00,CLR,,0.00,0.0,WeatherDisplay:10.37,2014-01-22 09:58:00,
2014-01-22 02:03:00,63.4,16.4,30.13,ENE,72,0.1,1.0,16,0.00,CLR,,0.00,0.0,WeatherDisplay:10.37,2014-01-22 10:03:00,
2014-01-22 02:08:00,63.1,16.1,30.13,ENE,70,0.0,1.2,16,0.00,CLR,,0.00,0.0,WeatherDisplay:10.37,2014-01-22 10:08:00,
2014-01-22 02:13:00,62.8,18.6,30.13,ENE,72,1.3,2.3,18,0.00,CLR,,0.00,0.0,WeatherDisplay:10.37,2014-01-22 10:13:00,
2014-01-22 02:18:00,62.3,19.5,30.13,NNW,329,1.3,3.0,19,0.00,CLR,,0.00,0.0,WeatherDisplay:10.37,2014-01-22 10:18:00,
2014-01-22 02:23:00,61.3,19.8,30.13,NNW,328,1.0,3.5,20,0.00,CLR,,0.00,0.0,WeatherDisplay:10.37,2014-01-22 10:23:00,
2014-01-22 02:28:00,60.2,23.2,30.13,NNW,329,0.7,1.2,24,0.00,CLR,,0.00,0.0,WeatherDisplay:10.37,2014-01-22 10:28:00,
2014-01-22 02:33:00,59.2,21.4,30.13,NNW,329,0.0,0.0,23,0.00,CLR,,0.00,0.0,WeatherDisplay:10.37,2014-01-22 10:33:00,
2014-01-22 02:38:00,58.5,19.7,30.12,NNW,331,0.0,0.0,22,0.00,CLR,,0.00,0.0,WeatherDisplay:10.37,2014-01-22 10:38:00,
2014-01-22 02:43:00,58.5,18.6,30.12,NNW,328,0.4,1.2,21,0.00,CLR,,0.00,0.0,WeatherDisplay:10.37,2014-01-22 10:43:00,
2014-01-22 02:48:00,58.6,18.7,30.12,NNW,330,1.5,2.3,21,0.00,CLR,,0.00,0.0,WeatherDisplay:10.37,2014-01-22 10:48:00,
2014-01-22 02:53:00,58.6,18.7,30.12,NNW,330,2.0,2.3,21,0.00,CLR,,0.00,0.0,WeatherDisplay:10.37,2014-01-22 10:53:00,
2014-01-22 02:58:00,58.7,16.5,30.12,NNW,328,2.2,3.5,19,0.00,CLR,,0.00,0.0,WeatherDisplay:10.37,2014-01-22 10:58:00,
2014-01-22 03:03:00,59.2,16.9,30.12,NNW,329,1.2,2.3,19,0.00,CLR,,0.00,0.0,WeatherDisplay:10.37,2014-01-22 11:03:00,
2014-01-22 03:08:00,59.8,16.1,30.12,NNW,339,1.2,2.3,18,0.00,CLR,,0.00,0.0,WeatherDisplay:10.37,2014-01-22 11:08:00,
2014-01-22 03:13:00,60.4,16.6,30.12,NNW,339,0.4,1.2,18,0.00,CLR,,0.00,0.0,WeatherDisplay:10.37,2014-01-22 11:13:00,
2014-01-22 03:18:00,60.5,16.7,30.12,NNW,340,0.0,0.0,18,0.00,CLR,,0.00,0.0,WeatherDisplay:10.37,2014-01-22 11:18:00,
2014-01-22 03:23:00,60.4,16.6,30.12,NNW,339,0.0,0.0,18,0.00,CLR,,0.00,0.0,WeatherDisplay:10.37,2014-01-22 11:23:00,
2014-01-22 03:28:00,60.0,17.6,30.11,NNW,340,0.0,1.2,19,0.00,CLR,,0.00,0.0,WeatherDisplay:10.37,2014-01-22 11:28:00,
2014-01-22 03:33:00,59.5,18.3,30.12,NNW,341,0.0,0.0,20,0.00,CLR,,0.00,0.0,WeatherDisplay:10.37,2014-01-22 11:33:00,
2014-01-22 03:38:00,58.9,19.0,30.11,NNW,341,0.0,0.0,21,0.00,CLR,,0.00,0.0,WeatherDisplay:10.37,2014-01-22 11:38:00,
2014-01-22 03:43:00,58.2,22.5,30.11,NNW,340,0.5,2.3,25,0.00,CLR,,0.00,0.0,WeatherDisplay:10.37,2014-01-22 11:43:00,
2014-01-22 03:48:00,57.6,23.8,30.11,NNW,341,1.8,2.3,27,0.00,CLR,,0.00,0.0,WeatherDisplay:10.37,2014-01-22 11:48:00,
2014-01-22 03:53:00,57.0,23.3,30.11,NNW,341,1.8,2.3,27,0.00,CLR,,0.00,0.0,WeatherDisplay:10.37,2014-01-22 11:53:00,
2014-01-22 03:58:00,56.4,23.7,30.11,NNW,341,0.1,1.2,28,0.00,CLR,,0.00,0.0,WeatherDisplay:10.37,2014-01-22 11:58:00,
2014-01-22 04:03:00,56.0,25.8,30.10,NNW,341,0.0,0.0,31,0.00,CLR,,0.00,0.0,WeatherDisplay:10.37,2014-01-22 12:03:00,
2014-01-22 04:08:00,55.8,25.6,30.10,NNW,340,1.2,2.3,31,0.00,CLR,,0.00,0.0,WeatherDisplay:10.37,2014-01-22 12:08:00,
2014-01-22 04:13:00,55.4,23.6,30.10,NNW,340,0.0,1.2,29,0.00,CLR,,0.00,0.0,WeatherDisplay:10.37,2014-01-22 12:13:00,
2014-01-22 04:18:00,55.0,23.3,30.10,NNW,339,1.2,2.3,29,0.00,CLR,,0.00,0.0,WeatherDisplay:10.37,2014-01-22 12:18:00,
2014-01-22 04:23:00,54.5,22.9,30.11,NNW,341,1.3,2.3,29,0.00,CLR,,0.00,0.0,WeatherDisplay:10.37,2014-01-22 12:23:00,
2014-01-22 04:28:00,54.1,22.5,30.10,NNW,340,0.1,1.2,29,0.00,CLR,,0.00,0.0,WeatherDisplay:10.37,2014-01-22 12:28:00,
2014-01-22 04:33:00,53.8,23.1,30.10,NNW,340,0.0,0.0,30,0.00,CLR,,0.00,0.0,WeatherDisplay:10.37,2014-01-22 12:33:00,
2014-01-22 04:39:00,53.8,22.2,30.10,NNW,339,0.0,0.0,29,0.00,CLR,,0.00,0.0,WeatherDisplay:10.37,2014-01-22 12:39:00,
2014-01-22 04:43:00,54.0,20.7,30.10,NNW,339,0.0,0.0,27,0.00,CLR,,0.00,0.0,WeatherDisplay:10.37,2014-01-22 12:43:00,
2014-01-22 04:48:00,54.1,19.9,30.10,NNW,341,0.2,0.0,26,0.00,CLR,,0.00,0.0,WeatherDisplay:10.37,2014-01-22 12:48:00,
2014-01-22 04:53:00,54.0,19.8,30.10,NNW,340,0.0,0.0,26,0.00,CLR,,0.00,0.0,WeatherDisplay:10.37,2014-01-22 12:53:00,
2014-01-22 04:58:00,53.8,19.7,30.09,NNW,339,0.0,0.0,26,0.00,CLR,,0.00,0.0,WeatherDisplay:10.37,2014-01-22 12:58:00,
2014-01-22 05:03:00,53.6,20.4,30.09,NNW,341,0.0,0.0,27,0.00,CLR,,0.00,0.0,WeatherDisplay:10.37,2014-01-22 13:03:00,
2014-01-22 05:08:00,53.6,22.1,30.09,NNW,339,0.0,0.0,29,0.00,CLR,,0.00,0.0,WeatherDisplay:10.37,2014-01-22 13:08:00,
2014-01-22 05:13:00,54.2,20.9,30.09,NNW,340,0.0,0.0,27,0.00,CLR,,0.00,0.0,WeatherDisplay:10.37,2014-01-22 13:13:00,
2014-01-22 05:18:00,54.4,20.2,30.09,NNW,340,0.0,0.0,26,0.00,CLR,,0.00,0.0,WeatherDisplay:10.37,2014-01-22 13:18:00,
2014-01-22 05:23:00,54.3,20.1,30.09,NNW,341,2.1,2.3,26,0.00,CLR,,0.00,0.0,WeatherDisplay:10.37,2014-01-22 13:23:00,
2014-01-22 05:28:00,54.0,19.8,30.09,NNW,341,1.2,3.5,26,0.00,CLR,,0.00,0.0,WeatherDisplay:10.37,2014-01-22 13:28:00,
2014-01-22 05:33:00,53.7,19.6,30.09,NW,322,1.6,2.3,26,0.00,CLR,,0.00,0.0,WeatherDisplay:10.37,2014-01-22 13:33:00,
2014-01-22 05:38:00,53.4,20.2,30.09,NW,321,2.8,4.0,27,0.00,CLR,,0.00,0.0,WeatherDisplay:10.37,2014-01-22 13:38:00,
2014-01-22 05:43:00,53.2,21.7,30.09,NW,321,2.3,3.5,29,0.00,CLR,,0.00,0.0,WeatherDisplay:10.37,2014-01-22 13:43:00,
2014-01-22 05:48:00,53.1,22.4,30.09,NW,321,1.8,3.5,30,0.00,CLR,,0.00,0.0,WeatherDisplay:10.37,2014-01-22 13:48:00,
2014-01-22 05:53:00,53.0,22.4,30.09,NW,315,1.8,2.3,30,0.00,CLR,,0.00,0.0,WeatherDisplay:10.37,2014-01-22 13:53:00,
2014-01-22 05:58:00,53.0,23.1,30.09,NW,316,2.9,3.5,31,0.00,CLR,,0.00,0.0,WeatherDisplay:10.37,2014-01-22 13:58:00,
2014-01-22 06:03:00,52.9,22.3,30.09,NW,316,3.4,3.5,30,0.00,CLR,,0.00,0.0,WeatherDisplay:10.37,2014-01-22 14:03:00,
2014-01-22 06:08:00,52.7,22.9,30.09,NW,316,3.1,3.5,31,0.00,CLR,,0.00,0.0,WeatherDisplay:10.37,2014-01-22 14:08:00,
2014-01-22 06:13:00,52.7,22.9,30.09,NW,315,3.6,4.0,31,0.00,CLR,,0.00,0.0,WeatherDisplay:10.37,2014-01-22 14:13:00,
2014-01-22 06:18:00,52.9,23.0,30.09,NW,307,3.1,4.0,31,0.00,CLR,,0.00,0.0,WeatherDisplay:10.37,2014-01-22 14:18:00,
2014-01-22 06:23:00,53.0,23.1,30.09,NW,308,3.3,3.5,31,0.00,CLR,,0.00,0.0,WeatherDisplay:10.37,2014-01-22 14:23:00,
2014-01-22 06:28:00,53.1,22.4,30.09,NW,307,2.3,3.5,30,0.00,CLR,,0.00,0.0,WeatherDisplay:10.37,2014-01-22 14:28:00,
2014-01-22 06:33:00,53.1,22.4,30.09,NW,307,2.4,3.5,30,0.00,CLR,,0.00,0.0,WeatherDisplay:10.37,2014-01-22 14:33:00,
2014-01-22 06:38:00,52.9,21.5,30.09,WSW,241,4.4,6.0,29,0.00,CLR,,0.00,0.0,WeatherDisplay:10.37,2014-01-22 14:38:00,
2014-01-22 06:43:00,52.8,24.5,30.09,WSW,246,5.0,5.8,33,0.00,CLR,,0.00,0.0,WeatherDisplay:10.37,2014-01-22 14:43:00,
2014-01-22 06:48:00,52.8,24.5,30.09,WSW,251,4.0,5.0,33,0.00,CLR,,0.00,0.0,WeatherDisplay:10.37,2014-01-22 14:48:00,
2014-01-22 06:53:00,53.1,22.4,30.09,West,270,2.9,3.5,30,0.00,CLR,,0.00,0.0,WeatherDisplay:10.37,2014-01-22 14:53:00,
2014-01-22 06:58:00,53.2,20.9,30.09,West,266,2.9,3.5,28,0.00,CLR,,0.00,0.0,WeatherDisplay:10.37,2014-01-22 14:58:00,
2014-01-22 07:03:00,53.3,21.0,30.09,WSW,247,4.8,5.0,28,0.00,CLR,,0.00,0.0,WeatherDisplay:10.37,2014-01-22 15:03:00,
2014-01-22 07:08:00,53.5,23.6,30.09,WSW,247,3.6,4.6,31,0.00,CLR,,0.00,0.0,WeatherDisplay:10.37,2014-01-22 15:08:00,
2014-01-22 07:13:00,53.6,24.4,30.09,SW,235,3.3,4.6,32,0.00,CLR,,0.00,0.0,WeatherDisplay:10.37,2014-01-22 15:13:00,
2014-01-22 07:18:00,53.6,24.4,30.09,WSW,238,3.1,3.5,32,0.00,CLR,,0.00,0.0,WeatherDisplay:10.37,2014-01-22 15:18:00,
2014-01-22 07:23:00,53.7,24.5,30.09,WSW,244,3.9,5.0,32,0.00,CLR,,0.00,5.0,WeatherDisplay:10.37,2014-01-22 15:23:00,
2014-01-22 07:28:00,54.0,24.8,30.09,WSW,250,4.9,5.8,32,0.00,CLR,,0.00,7.0,WeatherDisplay:10.37,2014-01-22 15:28:00,
2014-01-22 07:33:00,54.1,24.9,30.09,SW,231,3.1,4.6,32,0.00,CLR,,0.00,9.0,WeatherDisplay:10.37,2014-01-22 15:33:00,
2014-01-22 07:38:00,54.2,24.2,30.09,SW,228,2.7,3.5,31,0.00,CLR,,0.00,14.0,WeatherDisplay:10.37,2014-01-22 15:38:00,
2014-01-22 07:43:00,54.1,23.3,30.09,SW,217,2.9,3.5,30,0.00,CLR,,0.00,21.0,WeatherDisplay:10.37,2014-01-22 15:43:00,
2014-01-22 07:48:00,54.1,22.5,30.08,SSW,205,2.2,3.5,29,0.00,CLR,,0.00,23.0,WeatherDisplay:10.37,2014-01-22 15:48:00,
2014-01-22 07:53:00,54.1,21.7,30.09,SW,220,2.5,3.5,28,0.00,CLR,,0.00,53.0,WeatherDisplay:10.37,2014-01-22 15:53:00,
2014-01-22 07:58:00,54.5,22.0,30.08,SW,222,2.5,3.5,28,0.00,CLR,,0.00,69.0,WeatherDisplay:10.37,2014-01-22 15:58:00,
2014-01-22 08:03:00,55.4,21.9,30.08,SW,220,2.5,3.5,27,0.00,CLR,,0.00,84.0,WeatherDisplay:10.37,2014-01-22 16:03:00,
2014-01-22 08:08:00,56.5,22.0,30.08,SW,222,1.1,3.5,26,0.00,CLR,,0.00,98.0,WeatherDisplay:10.37,2014-01-22 16:08:00,
2014-01-22 08:13:00,57.6,22.0,30.08,SW,221,1.9,3.5,25,0.00,CLR,,0.00,116.0,WeatherDisplay:10.37,2014-01-22 16:13:00,
2014-01-22 08:18:00,58.6,22.8,30.08,SW,220,1.0,2.3,25,0.00,CLR,,0.00,134.0,WeatherDisplay:10.37,2014-01-22 16:18:00,
2014-01-22 08:23:00,59.3,23.4,30.08,SW,221,0.0,1.2,25,0.00,CLR,,0.00,153.0,WeatherDisplay:10.37,2014-01-22 16:23:00,
2014-01-22 08:28:00,60.0,25.0,30.08,SW,220,1.1,2.3,26,0.00,CLR,,0.00,171.0,WeatherDisplay:10.37,2014-01-22 16:28:00,
2014-01-22 08:33:00,61.2,25.1,30.08,WSW,249,1.9,3.5,25,0.00,CLR,,0.00,188.0,WeatherDisplay:10.37,2014-01-22 16:33:00,
2014-01-22 08:38:00,62.6,26.2,30.08,WSW,246,0.0,0.0,25,0.00,CLR,,0.00,206.0,WeatherDisplay:10.37,2014-01-22 16:38:00,
2014-01-22 08:43:00,64.0,26.4,30.08,WSW,247,0.1,1.0,24,0.00,CLR,,0.00,218.0,WeatherDisplay:10.37,2014-01-22 16:43:00,
2014-01-22 08:48:00,64.9,27.2,30.09,WSW,247,1.2,3.0,24,0.00,CLR,,0.00,234.0,WeatherDisplay:10.37,2014-01-22 16:48:00,
2014-01-22 08:53:00,64.8,27.1,30.09,WSW,249,2.5,3.5,24,0.00,CLR,,0.00,248.0,WeatherDisplay:10.37,2014-01-22 16:53:00,
2014-01-22 08:58:00,64.5,26.9,30.09,WSW,247,2.7,3.5,24,0.00,CLR,,0.00,264.0,WeatherDisplay:10.37,2014-01-22 16:58:00,
2014-01-22 09:03:00,63.9,25.3,30.09,WSW,252,3.4,3.5,23,0.00,CLR,,0.00,276.0,WeatherDisplay:10.37,2014-01-22 17:03:00,
2014-01-22 09:08:00,63.6,26.1,30.09,WSW,253,2.9,4.6,24,0.00,CLR,,0.00,290.0,WeatherDisplay:10.37,2014-01-22 17:08:00,
2014-01-22 09:13:00,63.4,25.9,30.09,WNW,284,3.5,3.5,24,0.00,CLR,,0.00,304.0,WeatherDisplay:10.37,2014-01-22 17:13:00,
2014-01-22 09:18:00,63.2,25.8,30.08,WNW,289,2.3,3.5,24,0.00,CLR,,0.00,316.0,WeatherDisplay:10.37,2014-01-22 17:18:00,
2014-01-22 09:23:00,63.4,25.9,30.09,WNW,288,1.3,3.5,24,0.00,CLR,,0.00,330.0,WeatherDisplay:10.37,2014-01-22 17:23:00,
2014-01-22 09:28:00,63.8,27.3,30.09,WNW,288,2.1,3.5,25,0.00,CLR,,0.00,345.0,WeatherDisplay:10.37,2014-01-22 17:28:00,
2014-01-22 09:33:00,64.0,26.4,30.09,WNW,289,1.8,2.3,24,0.00,CLR,,0.00,359.0,WeatherDisplay:10.37,2014-01-22 17:33:00,
2014-01-22 09:38:00,64.4,27.8,30.09,WNW,288,0.0,0.0,25,0.00,CLR,,0.00,373.0,WeatherDisplay:10.37,2014-01-22 17:38:00,
2014-01-22 09:43:00,64.9,29.2,30.09,WNW,288,0.3,1.2,26,0.00,CLR,,0.00,385.0,WeatherDisplay:10.37,2014-01-22 17:43:00,
2014-01-22 09:48:00,65.6,29.8,30.09,WNW,288,0.0,1.2,26,0.00,CLR,,0.00,396.0,WeatherDisplay:10.37,2014-01-22 17:48:00,
2014-01-22 09:54:00,66.1,30.2,30.09,WNW,289,0.0,1.2,26,0.00,CLR,,0.00,411.0,WeatherDisplay:10.37,2014-01-22 17:54:00,
2014-01-22 09:59:00,66.7,31.6,30.09,WNW,289,0.2,1.2,27,0.00,CLR,,0.00,422.0,WeatherDisplay:10.37,2014-01-22 17:59:00,
2014-01-22 10:04:00,67.4,32.2,30.09,WNW,288,0.4,2.3,27,0.00,CLR,,0.00,429.0,WeatherDisplay:10.37,2014-01-22 18:04:00,
2014-01-22 10:09:00,68.2,32.0,30.09,WNW,288,0.9,2.3,26,0.00,CLR,,0.00,441.0,WeatherDisplay:10.37,2014-01-22 18:09:00,
2014-01-22 10:14:00,69.0,30.7,30.08,WNW,289,0.1,1.2,24,0.00,CLR,,0.00,450.0,WeatherDisplay:10.37,2014-01-22 18:14:00,
2014-01-22 10:19:00,69.4,28.9,30.08,WNW,289,0.0,0.0,22,0.00,CLR,,0.00,462.0,WeatherDisplay:10.37,2014-01-22 18:19:00,
2014-01-22 10:24:00,69.9,30.4,30.08,WNW,291,1.8,3.5,23,0.00,CLR,,0.00,469.0,WeatherDisplay:10.37,2014-01-22 18:24:00,
2014-01-22 10:29:00,70.3,29.6,30.08,WNW,289,0.0,0.0,22,0.00,CLR,,0.00,480.0,WeatherDisplay:10.37,2014-01-22 18:29:00,
2014-01-22 10:34:00,70.9,31.2,30.08,North,10,2.6,3.5,23,0.00,CLR,,0.00,489.0,WeatherDisplay:10.37,2014-01-22 18:34:00,
2014-01-22 10:39:00,71.4,30.5,30.08,NNE,22,2.3,3.5,22,0.00,CLR,,0.00,497.0,WeatherDisplay:10.37,2014-01-22 18:39:00,
2014-01-22 10:44:00,71.8,30.9,30.08,North,10,2.7,3.5,22,0.00,CLR,,0.00,504.0,WeatherDisplay:10.37,2014-01-22 18:44:00,
2014-01-22 10:49:00,71.7,30.8,30.08,NNE,29,3.7,4.6,22,0.00,CLR,,0.00,513.0,WeatherDisplay:10.37,2014-01-22 18:49:00,
2014-01-22 10:54:00,71.8,29.7,30.07,NNE,16,1.8,3.5,21,0.00,CLR,,0.00,520.0,WeatherDisplay:10.37,2014-01-22 18:54:00,
2014-01-22 10:59:00,72.0,27.5,30.07,NNE,27,3.8,3.8,19,0.00,CLR,,0.00,527.0,WeatherDisplay:10.37,2014-01-22 18:59:00,
2014-01-22 11:04:00,72.0,28.7,30.07,NNE,27,2.5,3.5,20,0.00,CLR,,0.00,534.0,WeatherDisplay:10.37,2014-01-22 19:04:00,
2014-01-22 11:09:00,71.5,28.3,30.07,NE,51,3.3,5.0,20,0.00,CLR,,0.00,540.0,WeatherDisplay:10.37,2014-01-22 19:09:00,
2014-01-22 11:14:00,71.2,30.4,30.07,NNE,20,1.5,3.5,22,0.00,CLR,,0.00,545.0,WeatherDisplay:10.37,2014-01-22 19:14:00,
2014-01-22 11:19:00,71.2,31.5,30.07,NNE,33,2.8,3.5,23,0.00,CLR,,0.00,548.0,WeatherDisplay:10.37,2014-01-22 19:19:00,
2014-01-22 11:24:00,71.5,32.8,30.06,NE,39,2.1,3.5,24,0.00,CLR,,0.00,552.0,WeatherDisplay:10.37,2014-01-22 19:24:00,
2014-01-22 11:29:00,72.0,34.2,30.06,NE,36,2.4,3.5,25,0.00,CLR,,0.00,557.0,WeatherDisplay:10.37,2014-01-22 19:29:00,
2014-01-22 11:34:00,72.4,33.5,30.06,NE,35,1.7,3.5,24,0.00,CLR,,0.00,564.0,WeatherDisplay:10.37,2014-01-22 19:34:00,
2014-01-22 11:39:00,72.8,32.8,30.06,NE,36,1.7,2.3,23,0.00,CLR,,0.00,566.0,WeatherDisplay:10.37,2014-01-22 19:39:00,
2014-01-22 11:44:00,73.0,31.9,30.05,NNE,19,0.2,2.3,22,0.00,CLR,,0.00,566.0,WeatherDisplay:10.37,2014-01-22 19:44:00,
2014-01-22 11:49:00,73.3,32.1,30.05,NNE,23,2.0,3.5,22,0.00,CLR,,0.00,571.0,WeatherDisplay:10.37,2014-01-22 19:49:00,
2014-01-22 11:54:00,73.4,31.1,30.05,NNE,22,1.5,3.5,21,0.00,CLR,,0.00,575.0,WeatherDisplay:10.37,2014-01-22 19:54:00,
2014-01-22 11:59:00,73.6,28.8,30.05,NNE,21,1.6,2.3,19,0.00,CLR,,0.00,573.0,WeatherDisplay:10.37,2014-01-22 19:59:00,
2014-01-22 12:04:00,73.5,27.4,30.04,NNE,27,2.6,3.5,18,0.00,CLR,,0.00,573.0,WeatherDisplay:10.37,2014-01-22 20:04:00,
2014-01-22 12:09:00,73.3,28.5,30.04,North,8,1.9,3.5,19,0.00,CLR,,0.00,575.0,WeatherDisplay:10.37,2014-01-22 20:09:00,
2014-01-22 12:14:00,73.5,26.0,30.04,NNE,20,0.9,2.3,17,0.00,CLR,,0.00,577.0,WeatherDisplay:10.37,2014-01-22 20:14:00,
2014-01-22 12:19:00,73.7,26.1,30.03,NNE,21,0.0,0.0,17,0.00,CLR,,0.00,575.0,WeatherDisplay:10.37,2014-01-22 20:19:00,
2014-01-22 12:24:00,74.1,26.5,30.03,NNE,30,1.9,3.5,17,0.00,CLR,,0.00,571.0,WeatherDisplay:10.37,2014-01-22 20:24:00,
2014-01-22 12:29:00,74.3,22.0,30.03,NNE,30,1.3,3.5,14,0.00,CLR,,0.00,573.0,WeatherDisplay:10.37,2014-01-22 20:29:00,
2014-01-22 12:34:00,74.2,26.5,30.02,NNE,22,2.3,3.5,17,0.00,CLR,,0.00,570.0,WeatherDisplay:10.37,2014-01-22 20:34:00,
2014-01-22 12:39:00,74.1,23.5,30.02,NE,43,0.0,1.2,15,0.00,CLR,,0.00,566.0,WeatherDisplay:10.37,2014-01-22 20:39:00,
2014-01-22 12:44:00,74.1,25.0,30.02,NE,38,1.3,2.3,16,0.00,CLR,,0.00,566.0,WeatherDisplay:10.37,2014-01-22 20:44:00,
2014-01-22 12:49:00,74.5,23.8,30.02,NE,38,0.5,1.2,15,0.00,CLR,,0.00,564.0,WeatherDisplay:10.37,2014-01-22 20:49:00,
2014-01-22 12:54:00,74.9,24.1,30.01,West,276,1.4,4.0,15,0.00,CLR,,0.00,563.0,WeatherDisplay:10.37,2014-01-22 20:54:00,
2014-01-22 12:59:00,75.2,22.7,30.01,North,2,2.5,4.6,14,0.00,CLR,,0.00,559.0,WeatherDisplay:10.37,2014-01-22 20:59:00,
2014-01-22 13:04:00,75.5,19.3,30.01,NNW,342,1.5,3.5,12,0.00,CLR,,0.00,557.0,WeatherDisplay:10.37,2014-01-22 21:04:00,
2014-01-22 13:09:00,75.3,19.1,30.01,NNW,343,1.6,3.5,12,0.00,CLR,,0.00,552.0,WeatherDisplay:10.37,2014-01-22 21:09:00,
2014-01-22 13:14:00,75.1,20.9,30.01,NNW,339,0.8,3.5,13,0.00,CLR,,0.00,547.0,WeatherDisplay:10.37,2014-01-22 21:14:00,
2014-01-22 13:19:00,75.3,21.0,30.00,NW,326,2.0,3.5,13,0.00,CLR,,0.00,541.0,WeatherDisplay:10.37,2014-01-22 21:19:00,
2014-01-22 13:24:00,75.5,21.2,30.00,NNW,346,1.7,3.5,13,0.00,CLR,,0.00,533.0,WeatherDisplay:10.37,2014-01-22 21:24:00,
2014-01-22 13:29:00,75.6,23.0,30.00,NNE,27,2.0,3.5,14,0.00,CLR,,0.00,527.0,WeatherDisplay:10.37,2014-01-22 21:29:00,
2014-01-22 13:34:00,75.6,19.4,29.99,NNE,26,0.3,1.2,12,0.00,CLR,,0.00,522.0,WeatherDisplay:10.37,2014-01-22 21:34:00,
2014-01-22 13:39:00,75.6,19.4,29.99,NNE,25,1.3,3.0,12,0.00,CLR,,0.00,513.0,WeatherDisplay:10.37,2014-01-22 21:39:00,
2014-01-22 13:44:00,75.7,19.4,29.99,NNE,26,0.0,0.0,12,0.00,CLR,,0.00,508.0,WeatherDisplay:10.37,2014-01-22 21:44:00,
2014-01-22 13:49:00,75.7,19.4,29.99,NNE,14,0.0,0.0,12,0.00,CLR,,0.00,497.0,WeatherDisplay:10.37,2014-01-22 21:49:00,
2014-01-22 13:54:00,75.8,19.5,29.99,NNE,20,1.3,3.5,12,0.00,CLR,,0.00,490.0,WeatherDisplay:10.37,2014-01-22 21:54:00,
2014-01-22 13:59:00,76.0,19.7,29.99,NW,317,2.1,3.5,12,0.00,CLR,,0.00,483.0,WeatherDisplay:10.37,2014-01-22 21:59:00,
2014-01-22 14:04:00,76.2,19.8,29.99,NNW,328,2.2,3.5,12,0.00,CLR,,0.00,473.0,WeatherDisplay:10.37,2014-01-22 22:04:00,
2014-01-22 14:09:00,76.3,19.9,29.98,NNW,329,2.7,3.5,12,0.00,CLR,,0.00,464.0,WeatherDisplay:10.37,2014-01-22 22:09:00,
2014-01-22 14:14:00,76.4,20.0,29.98,North,8,2.5,4.0,12,0.00,CLR,,0.00,454.0,WeatherDisplay:10.37,2014-01-22 22:14:00,
2014-01-22 14:19:00,76.5,20.1,29.98,NNE,15,1.6,2.3,12,0.00,CLR,,0.00,445.0,WeatherDisplay:10.37,2014-01-22 22:19:00,
2014-01-22 14:24:00,76.6,20.1,29.98,NNW,347,1.7,3.5,12,0.00,CLR,,0.00,432.0,WeatherDisplay:10.37,2014-01-22 22:24:00,
2014-01-22 14:29:00,76.7,20.2,29.98,NNW,347,0.5,2.3,12,0.00,CLR,,0.00,425.0,WeatherDisplay:10.37,2014-01-22 22:29:00,
2014-01-22 14:34:00,76.8,20.3,29.98,NNW,345,0.5,2.3,12,0.00,CLR,,0.00,413.0,WeatherDisplay:10.37,2014-01-22 22:34:00,
2014-01-22 14:39:00,76.9,20.4,29.98,WNW,292,2.4,4.6,12,0.00,CLR,,0.00,404.0,WeatherDisplay:10.37,2014-01-22 22:39:00,
2014-01-22 14:44:00,76.9,20.4,29.98,WNW,294,0.0,0.0,12,0.00,CLR,,0.00,392.0,WeatherDisplay:10.37,2014-01-22 22:44:00,
2014-01-22 14:49:00,76.9,20.4,29.97,WNW,296,0.6,2.3,12,0.00,CLR,,0.00,381.0,WeatherDisplay:10.37,2014-01-22 22:49:00,
2014-01-22 14:54:00,76.7,20.2,29.97,WNW,295,0.3,2.3,12,0.00,CLR,,0.00,367.0,WeatherDisplay:10.37,2014-01-22 22:54:00,
2014-01-22 14:59:00,76.6,20.1,29.98,WNW,300,0.1,1.0,12,0.00,CLR,,0.00,355.0,WeatherDisplay:10.37,2014-01-22 22:59:00,
2014-01-22 15:04:00,76.5,22.0,29.97,WNW,288,3.6,4.6,13,0.00,CLR,,0.00,345.0,WeatherDisplay:10.37,2014-01-22 23:04:00,
2014-01-22 15:09:00,76.4,21.9,29.97,WNW,297,3.0,3.5,13,0.00,CLR,,0.00,330.0,WeatherDisplay:10.37,2014-01-22 23:09:00,
2014-01-22 15:14:00,76.2,19.8,29.97,WNW,295,1.3,3.5,12,0.00,CLR,,0.00,318.0,WeatherDisplay:10.37,2014-01-22 23:14:00,
2014-01-22 15:19:00,76.0,21.6,29.97,WSW,245,2.6,3.5,13,0.00,CLR,,0.00,306.0,WeatherDisplay:10.37,2014-01-22 23:19:00,
2014-01-22 15:24:00,76.2,21.7,29.97,SW,234,1.8,3.5,13,0.00,CLR,,0.00,292.0,WeatherDisplay:10.37,2014-01-22 23:24:00,
2014-01-22 15:29:00,76.3,23.6,29.97,SW,236,1.4,2.3,14,0.00,CLR,,0.00,279.0,WeatherDisplay:10.37,2014-01-22 23:29:00,
2014-01-22 15:34:00,76.2,21.7,29.96,WSW,244,1.8,3.5,13,0.00,CLR,,0.00,265.0,WeatherDisplay:10.37,2014-01-22 23:34:00,
2014-01-22 15:39:00,76.2,21.7,29.96,WSW,244,1.3,2.3,13,0.00,CLR,,0.00,251.0,WeatherDisplay:10.37,2014-01-22 23:39:00,
2014-01-22 15:44:00,76.3,21.8,29.96,WSW,243,1.8,3.5,13,0.00,CLR,,0.00,237.0,WeatherDisplay:10.37,2014-01-22 23:44:00,
2014-01-22 15:49:00,76.2,21.7,29.96,WSW,243,1.3,2.3,13,0.00,CLR,,0.00,221.0,WeatherDisplay:10.37,2014-01-22 23:49:00,
2014-01-22 15:54:00,76.0,23.3,29.95,WNW,299,3.4,4.0,14,0.00,CLR,,0.00,204.0,WeatherDisplay:10.37,2014-01-22 23:54:00,
2014-01-22 15:59:00,75.8,23.2,29.95,WNW,286,2.2,3.5,14,0.00,CLR,,0.00,183.0,WeatherDisplay:10.37,2014-01-22 23:59:00,
2014-01-22 16:04:00,75.5,24.6,29.95,WNW,287,2.8,3.5,15,0.00,CLR,,0.00,167.0,WeatherDisplay:10.37,2014-01-23 00:04:00,
2014-01-22 16:09:00,75.2,24.3,29.95,WNW,286,1.3,3.5,15,0.00,CLR,,0.00,148.0,WeatherDisplay:10.37,2014-01-23 00:09:00,
2014-01-22 16:14:00,74.9,24.1,29.95,WNW,287,3.6,4.6,15,0.00,CLR,,0.00,128.0,WeatherDisplay:10.37,2014-01-23 00:14:00,
2014-01-22 16:19:00,74.5,23.8,29.95,WNW,288,3.0,3.5,15,0.00,CLR,,0.00,111.0,WeatherDisplay:10.37,2014-01-23 00:19:00,
2014-01-22 16:24:00,74.1,23.5,29.95,WNW,291,2.9,4.0,15,0.00,CLR,,0.00,98.0,WeatherDisplay:10.37,2014-01-23 00:24:00,
2014-01-22 16:29:00,73.8,23.2,29.95,WNW,289,2.6,3.5,15,0.00,CLR,,0.00,81.0,WeatherDisplay:10.37,2014-01-23 00:29:00,
2014-01-22 16:34:00,73.5,23.0,29.95,WNW,292,1.9,3.5,15,0.00,CLR,,0.00,67.0,WeatherDisplay:10.37,2014-01-23 00:34:00,
2014-01-22 16:39:00,73.0,22.6,29.95,WNW,291,1.8,2.3,15,0.00,CLR,,0.00,53.0,WeatherDisplay:10.37,2014-01-23 00:39:00,
2014-01-22 16:44:00,72.7,22.3,29.95,WNW,290,1.9,3.5,15,0.00,CLR,,0.00,42.0,WeatherDisplay:10.37,2014-01-23 00:44:00,
2014-01-22 16:49:00,72.2,21.9,29.94,WNW,289,0.0,1.2,15,0.00,CLR,,0.00,26.0,WeatherDisplay:10.37,2014-01-23 00:49:00,
2014-01-22 16:54:00,71.8,21.6,29.94,WNW,289,0.3,1.2,15,0.00,CLR,,0.00,16.0,WeatherDisplay:10.37,2014-01-23 00:54:00,
2014-01-22 18:15:00,61.2,34.7,29.94,NE,40,0.0,4.0,37,0.00,CLR,,0.00,0.0,WeatherDisplay:10.37,2014-01-23 02:15:00,
2014-01-22 18:19:00,60.9,33.7,29.94,NE,41,0.0,0.0,36,0.00,CLR,,0.00,0.0,WeatherDisplay:10.37,2014-01-23 02:19:00,
2014-01-22 18:21:00,60.7,32.9,29.94,NE,41,0.0,0.0,35,0.00,CLR,,0.00,0.0,WeatherDisplay:10.37,2014-01-23 02:21:00,
2014-01-22 18:24:00,60.6,32.8,29.94,NE,41,0.0,0.0,35,0.00,CLR,,0.00,0.0,WeatherDisplay:10.37,2014-01-23 02:24:00,
2014-01-22 18:25:00,60.5,32.7,29.93,NE,41,0.0,0.0,35,0.00,CLR,,0.00,0.0,WeatherDisplay:10.37,2014-01-23 02:25:00,
2014-01-22 18:30:00,60.2,33.1,29.93,NE,42,0.0,0.0,36,0.00,CLR,CLR,0.00,0.0,WeatherDisplay:10.37,2014-01-23 02:30:00,
2014-01-22 18:35:00,59.9,33.5,29.93,NE,41,0.0,0.0,37,0.00,CLR,,0.00,0.0,WeatherDisplay:10.37,2014-01-23 02:35:00,
2014-01-22 18:40:00,59.8,32.8,29.93,NE,42,1.0,2.0,36,0.00,CLR,CLR,0.00,0.0,WeatherDisplay:10.37,2014-01-23 02:40:00,
2014-01-22 18:45:00,59.9,34.2,29.93,NE,41,0.0,0.0,38,0.00,CLR,,0.00,0.0,WeatherDisplay:10.37,2014-01-23 02:45:00,
2014-01-22 18:50:00,60.2,31.7,29.92,NE,41,0.0,0.0,34,0.00,CLR,,0.00,0.0,WeatherDisplay:10.37,2014-01-23 02:50:00,
2014-01-22 18:55:00,60.5,31.2,29.92,NE,41,0.0,0.0,33,0.00,CLR,,0.00,0.0,WeatherDisplay:10.37,2014-01-23 02:55:00,
2014-01-22 19:00:00,60.8,35.0,29.92,NE,41,0.0,0.0,38,0.00,CLR,,0.00,0.0,WeatherDisplay:10.37,2014-01-23 03:00:00,
2014-01-22 19:05:00,60.7,27.4,29.92,NE,42,0.0,0.0,28,0.00,CLR,,0.00,0.0,WeatherDisplay:10.37,2014-01-23 03:05:00,
2014-01-22 19:10:00,60.6,26.4,29.91,NE,41,1.9,2.3,27,0.00,CLR,,0.00,0.0,WeatherDisplay:10.37,2014-01-23 03:10:00,
2014-01-22 19:15:00,60.6,29.0,29.91,NE,42,3.9,4.0,30,0.00,CLR,,0.00,0.0,WeatherDisplay:10.37,2014-01-23 03:15:00,
2014-01-22 19:20:00,60.5,32.0,29.91,NE,44,3.3,3.5,34,0.00,CLR,,0.00,0.0,WeatherDisplay:10.37,2014-01-23 03:20:00,
2014-01-22 19:25:00,60.3,30.3,29.91,NE,47,3.2,4.6,32,0.00,CLR,,0.00,0.0,WeatherDisplay:10.37,2014-01-23 03:25:00,
2014-01-22 19:30:00,60.0,29.2,29.91,NE,45,3.6,4.0,31,0.00,CLR,,0.00,0.0,WeatherDisplay:10.37,2014-01-23 03:30:00,
2014-01-22 19:35:00,59.7,27.4,29.92,NE,45,2.4,3.5,29,0.00,CLR,,0.00,0.0,WeatherDisplay:10.37,2014-01-23 03:35:00,
2014-01-22 19:40:00,59.5,28.0,29.92,NE,46,2.0,3.0,30,0.00,CLR,CLR,0.00,0.0,WeatherDisplay:10.37,2014-01-23 03:40:00,
2014-01-22 19:45:00,59.1,27.7,29.92,NE,45,1.7,2.3,30,0.00,CLR,,0.00,0.0,WeatherDisplay:10.37,2014-01-23 03:45:00,
2014-01-22 19:50:00,58.9,28.3,29.92,NE,46,1.0,3.0,31,0.00,CLR,CLR,0.00,0.0,WeatherDisplay:10.37,2014-01-23 03:50:00,
2014-01-22 19:55:00,59.3,27.0,29.92,ENE,60,2.2,2.3,29,0.00,CLR,,0.00,0.0,WeatherDisplay:10.37,2014-01-23 03:55:00,
2014-01-22 20:00:00,59.6,27.3,29.92,East,91,2.0,3.5,29,0.00,CLR,,0.00,0.0,WeatherDisplay:10.37,2014-01-23 04:00:00,
2014-01-22 20:05:00,59.9,29.9,29.92,East,91,1.2,2.0,32,0.00,CLR,,0.00,0.0,WeatherDisplay:10.37,2014-01-23 04:05:00,
2014-01-22 20:10:00,60.2,29.4,29.92,East,91,1.0,2.3,31,0.00,CLR,,0.00,0.0,WeatherDisplay:10.37,2014-01-23 04:10:00,
2014-01-22 20:15:00,60.5,30.5,29.91,East,91,0.0,0.0,32,0.00,CLR,,0.00,0.0,WeatherDisplay:10.37,2014-01-23 04:15:00,
2014-01-22 20:20:00,60.6,30.6,29.92,East,91,0.0,0.0,32,0.00,CLR,,0.00,0.0,WeatherDisplay:10.37,2014-01-23 04:20:00,
2014-01-22 20:25:00,60.7,30.6,29.92,East,91,0.0,0.0,32,0.00,CLR,,0.00,0.0,WeatherDisplay:10.37,2014-01-23 04:25:00,
2014-01-22 20:30:00,60.5,30.5,29.92,East,91,0.0,0.0,32,0.00,CLR,,0.00,0.0,WeatherDisplay:10.37,2014-01-23 04:30:00,
2014-01-22 20:35:00,60.2,31.0,29.92,East,91,0.0,0.0,33,0.00,CLR,,0.00,0.0,WeatherDisplay:10.37,2014-01-23 04:35:00,
2014-01-22 20:40:00,60.0,31.5,29.92,East,91,0.0,0.0,34,0.00,CLR,CLR,0.00,0.0,WeatherDisplay:10.37,2014-01-23 04:40:00,
2014-01-22 20:45:00,59.9,30.7,29.92,East,91,0.0,0.0,33,0.00,CLR,,0.00,0.0,WeatherDisplay:10.37,2014-01-23 04:45:00,
2014-01-22 20:50:00,60.1,28.5,29.92,East,92,0.0,0.0,30,0.00,CLR,,0.00,0.0,WeatherDisplay:10.37,2014-01-23 04:50:00,
2014-01-22 20:55:00,60.3,27.0,29.92,East,93,0.0,0.0,28,0.00,CLR,,0.00,0.0,WeatherDisplay:10.37,2014-01-23 04:55:00,
2014-01-22 21:00:00,60.5,27.2,29.92,East,91,0.6,1.2,28,0.00,CLR,,0.00,0.0,WeatherDisplay:10.37,2014-01-23 05:00:00,
2014-01-22 21:01:00,60.5,27.2,29.92,East,92,1.0,1.2,28,0.00,CLR,,0.00,0.0,WeatherDisplay:10.37,2014-01-23 05:01:00,
2014-01-22 21:06:00,60.5,25.4,29.92,East,93,1.3,2.3,26,0.00,CLR,,0.00,0.0,WeatherDisplay:10.37,2014-01-23 05:06:00,
2014-01-22 21:11:00,60.5,26.3,29.92,East,92,1.6,2.3,27,0.00,CLR,,0.00,0.0,WeatherDisplay:10.37,2014-01-23 05:11:00,
2014-01-22 21:16:00,60.6,26.4,29.92,East,91,1.3,2.3,27,0.00,CLR,,0.00,0.0,WeatherDisplay:10.37,2014-01-23 05:16:00,
2014-01-22 21:21:00,60.4,27.1,29.92,East,91,0.1,1.2,28,0.00,CLR,,0.00,0.0,WeatherDisplay:10.37,2014-01-23 05:21:00,
2014-01-22 21:26:00,60.1,27.7,29.93,East,92,1.0,1.2,29,0.00,CLR,,0.00,0.0,WeatherDisplay:10.37,2014-01-23 05:26:00,
2014-01-22 21:31:00,59.7,31.3,29.93,NE,42,2.9,3.5,34,0.00,CLR,,0.00,0.0,WeatherDisplay:10.37,2014-01-23 05:31:00,
2014-01-22 21:36:00,59.0,30.6,29.92,NE,41,0.6,2.3,34,0.00,CLR,,0.00,0.0,WeatherDisplay:10.37,2014-01-23 05:36:00,
2014-01-22 21:41:00,58.5,27.9,29.92,ESE,113,3.9,4.6,31,0.00,CLR,,0.00,0.0,WeatherDisplay:10.37,2014-01-23 05:41:00,
2014-01-22 21:46:00,58.4,27.9,29.92,ESE,119,3.2,4.0,31,0.00,CLR,,0.00,0.0,WeatherDisplay:10.37,2014-01-23 05:46:00,
2014-01-22 21:51:00,58.2,26.1,29.92,SE,141,3.5,4.0,29,0.00,CLR,,0.00,0.0,WeatherDisplay:10.37,2014-01-23 05:51:00,
2014-01-22 21:56:00,57.9,25.0,29.92,SE,141,1.5,3.5,28,0.00,CLR,,0.00,0.0,WeatherDisplay:10.37,2014-01-23 05:56:00,
2014-01-22 22:01:00,57.8,25.7,29.92,SE,141,0.0,1.2,29,0.00,CLR,,0.00,0.0,WeatherDisplay:10.37,2014-01-23 06:01:00,
2014-01-22 22:06:00,57.8,25.7,29.91,SE,143,1.5,2.3,29,0.00,CLR,,0.00,0.0,WeatherDisplay:10.37,2014-01-23 06:06:00,
2014-01-22 22:11:00,58.0,26.7,29.91,SE,140,1.6,2.3,30,0.00,CLR,,0.00,0.0,WeatherDisplay:10.37,2014-01-23 06:11:00,
2014-01-22 22:16:00,58.4,26.2,29.91,SE,142,3.0,4.0,29,0.00,CLR,,0.00,0.0,WeatherDisplay:10.37,2014-01-23 06:16:00,
2014-01-22 22:21:00,58.7,25.6,29.91,SE,140,3.2,4.0,28,0.00,CLR,,0.00,0.0,WeatherDisplay:10.37,2014-01-23 06:21:00,
2014-01-22 22:26:00,59.1,22.3,29.91,SE,141,3.9,4.6,24,0.00,CLR,,0.00,0.0,WeatherDisplay:10.37,2014-01-23 06:26:00,
2014-01-22 22:31:00,59.8,19.7,29.90,SE,127,3.9,4.6,21,0.00,CLR,,0.00,0.0,WeatherDisplay:10.37,2014-01-23 06:31:00,
2014-01-22 22:36:00,60.6,19.3,29.90,ESE,112,3.2,3.5,20,0.00,CLR,,0.00,0.0,WeatherDisplay:10.37,2014-01-23 06:36:00,
2014-01-22 22:41:00,61.0,19.6,29.90,ESE,114,2.9,3.5,20,0.00,CLR,,0.00,0.0,WeatherDisplay:10.37,2014-01-23 06:41:00,
2014-01-22 22:46:00,61.2,19.8,29.90,ESE,103,2.6,3.5,20,0.00,CLR,,0.00,0.0,WeatherDisplay:10.37,2014-01-23 06:46:00,
2014-01-22 22:51:00,61.3,19.8,29.90,ESE,103,2.7,3.5,20,0.00,CLR,,0.00,0.0,WeatherDisplay:10.37,2014-01-23 06:51:00,
2014-01-22 22:56:00,61.2,19.8,29.90,ESE,103,0.2,1.2,20,0.00,CLR,,0.00,0.0,WeatherDisplay:10.37,2014-01-23 06:56:00,
2014-01-22 23:01:00,60.7,22.6,29.90,ESE,103,2.4,3.5,23,0.00,CLR,,0.00,0.0,WeatherDisplay:10.37,2014-01-23 07:01:00,
2014-01-22 23:06:00,59.8,30.6,29.91,East,87,3.6,4.6,33,0.00,CLR,,0.00,0.0,WeatherDisplay:10.37,2014-01-23 07:06:00,
2014-01-22 23:11:00,58.8,33.9,29.90,ESE,103,3.4,4.6,39,0.00,CLR,,0.00,0.0,WeatherDisplay:10.37,2014-01-23 07:11:00,
2014-01-22 23:16:00,58.1,33.9,29.90,ESE,120,3.8,4.6,40,0.00,CLR,,0.00,0.0,WeatherDisplay:10.37,2014-01-23 07:16:00,
2014-01-22 23:21:00,57.7,34.1,29.90,ESE,106,4.0,5.8,41,0.00,CLR,,0.00,0.0,WeatherDisplay:10.37,2014-01-23 07:21:00,
2014-01-22 23:26:00,57.4,33.9,29.90,ESE,107,3.3,3.5,41,0.00,CLR,,0.00,0.0,WeatherDisplay:10.37,2014-01-23 07:26:00,
2014-01-22 23:31:00,57.1,33.0,29.90,SE,128,2.8,3.5,40,0.00,CLR,,0.00,0.0,WeatherDisplay:10.37,2014-01-23 07:31:00,
2014-01-22 23:36:00,56.9,33.4,29.90,ESE,111,0.2,2.3,41,0.00,CLR,,0.00,0.0,WeatherDisplay:10.37,2014-01-23 07:36:00,
2014-01-22 23:41:00,56.6,29.9,29.90,ESE,111,0.2,0.0,36,0.00,CLR,,0.00,0.0,WeatherDisplay:10.37,2014-01-23 07:41:00,
2014-01-22 23:46:00,56.0,31.4,29.90,SSE,149,1.1,2.0,39,0.00,CLR,,0.00,0.0,WeatherDisplay:10.37,2014-01-23 07:46:00,
2014-01-22 23:51:00,55.5,27.6,29.90,West,266,3.4,5.8,34,0.00,CLR,,0.00,0.0,WeatherDisplay:10.37,2014-01-23 07:51:00,
2014-01-22 23:56:00,55.2,25.8,29.90,West,266,0.1,1.0,32,0.00,CLR,,0.00,0.0,WeatherDisplay:10.37,2014-01-23 07:56:00,